AKDT,Max TemperatureF,Mean TemperatureF,Min TemperatureF,Max Dew PointF,MeanDew PointF,Min DewpointF,Max Humidity, Mean Humidity, Min Humidity, Max Sea Level PressureIn, Mean Sea Level PressureIn, Min Sea Level PressureIn, Max VisibilityMiles, Mean VisibilityMiles, Min VisibilityMiles, Max Wind SpeedMPH, Mean Wind SpeedMPH, Max Gust SpeedMPH,PrecipitationIn, CloudCover, Events, WindDirDegrees
2012-10-1,50,44,39,43,37,30,93,73,50,30.44,30.04,29.71,10,10,8,16,6,23,0.00,6,,266
2012-10-2,46,39,32,37,35,28,100,81,62,30.62,30.57,30.45,10,10,10,7,2,,0.00,1,,97
2012-10-3,48,44,39,39,38,36,93,83,62,30.54,30.51,30.48,10,10,10,6,1,,0.00,8,,1
2012-10-4,51,46,41,43,40,36,93,80,62,30.52,30.50,30.48,10,10,10,6,0,,0.00,8,,71
2012-10-5,48,46,44,46,45,41,93,92,87,30.51,30.47,30.41,10,9,0,7,3,,0.00,8,,66
2012-10-6,57,50,44,50,46,43,100,94,72,30.41,30.39,30.33,10,2,0,6,3,,0.00,7,Fog,78
2012-10-7,71,58,46,52,47,43,94,78,41,30.30,30.25,30.18,10,7,0,7,2,,0.00,4,Fog,82
2012-10-8,57,48,39,46,42,37,100,79,58,30.14,30.11,30.07,10,10,10,6,2,,0.00,1,,49
2012-10-9,50,46,41,48,44,39,100,91,76,30.07,30.06,30.05,10,9,3,7,2,,0.00,8,Fog-Rain,65
2012-10-10,53,48,44,46,43,41,93,83,67,30.08,30.03,29.97,10,10,10,8,4,,0.00,4,Fog,50
2012-10-11,46,45,42,45,44,41,93,92,87,29.82,29.74,29.58,10,10,7,7,2,,0.00,8,Fog-Rain,39
2012-10-12,48,45,42,46,44,41,93,93,93,29.38,29.33,29.30,10,4,2,6,3,,0.00,8,Rain,195
2012-10-13,51,48,44,46,44,37,93,83,62,29.67,29.60,29.40,10,8,4,17,5,17,0.00,6,Rain,100
2012-10-14,51,48,44,46,43,39,100,83,71,29.38,29.12,29.03,10,8,4,14,5,24,0.00,8,Rain,127
2012-10-15,51,46,42,45,42,39,93,88,76,29.45,29.20,29.05,10,8,5,14,6,21,0.00,8,Rain,130
2012-10-16,46,44,42,41,37,34,93,77,70,29.96,29.61,29.15,10,10,7,14,5,20,0.00,7,Rain,183
2012-10-17,42,40,37,39,36,34,93,84,70,30.00,29.81,29.62,10,8,4,12,6,22,0.00,8,Rain,138
2012-10-18,42,37,32,37,34,30,100,90,76,29.89,29.80,29.68,10,8,0,6,1,,0.00,7,Rain,228
2012-10-19,39,34,28,34,30,27,100,87,65,29.68,29.63,29.60,10,9,0,6,2,,0.00,6,,182
2012-10-20,42,35,28,32,27,23,93,80,46,29.88,29.78,29.67,10,10,10,6,3,,0.00,2,,192
2012-10-21,42,34,26,25,22,16,86,67,36,30.04,29.99,29.88,10,10,10,8,3,,0.00,0,,183
2012-10-22,42,34,26,25,20,16,80,63,34,30.03,29.99,29.92,10,10,10,8,4,,0.00,0,,216
2012-10-23,42,33,24,25,20,16,86,66,34,30.08,30.00,29.93,10,10,10,9,5,,0.00,0,,217
2012-10-24,41,34,26,25,20,18,80,60,39,30.30,30.14,30.07,10,10,10,12,3,,0.00,0,,181
2012-10-25,39,32,26,23,18,16,74,59,42,30.38,30.34,30.31,10,10,10,7,3,,0.00,0,,175
2012-10-26,39,31,23,21,17,10,80,60,33,30.31,30.21,30.08,10,10,10,7,3,,0.00,0,,192
2012-10-27,35,27,19,19,16,10,86,66,35,30.08,29.93,29.83,10,10,10,7,2,,0.00,0,,209
2012-10-28,33,25,17,18,13,9,93,66,35,29.91,29.88,29.85,10,10,10,6,3,,0.00,0,,199
2012-10-29,33,24,15,21,12,7,93,66,35,30.03,29.89,29.82,10,10,10,6,2,,0.00,0,,217
2012-10-30,35,26,17,18,12,7,80,62,35,30.07,30.02,29.87,10,10,10,4,1,,0.00,3,,222
2012-10-31,37,28,19,19,16,12,86,63,38,29.87,29.77,29.73,10,10,10,7,1,,0.00,2,,230